Volk, WI

1:18 AM CDT on October 23, 2017 (GMT -0500)
Volk

Weather History for KVOK - November, 2013

Change the Weather History Date:

Tuesday, November 5, 2013

  Actual Average Record
Temperature  
Mean Temperature 39 °F -  
Max Temperature 48 °F 46 °F 71 °F (2016)
Min Temperature 30 °F 33 °F 17 °F (2012)
Degree Days  
Heating Degree Days 26    
Moisture  
Dew Point 39 °F    
Average Humidity 99    
Maximum Humidity 100    
Minimum Humidity 76    
Precipitation  
Precipitation 0.01 in - - ()
Sea Level Pressure  
Sea Level Pressure 30.16 in    
Wind  
Wind Speed 2 mph (ENE)    
Max Wind Speed 8 mph    
Max Gust Speed -    
Visibility 4 miles    
Events Fog , Rain    
Averages and records for this station are not official NWS values.
T = Trace of Precipitation, MM = Missing Value Source: NWS Daily Summary

Daily Weather History Graph

Daily Weather History Graph

Search for Another Location

Airport or City:

Trip Planner

Search our weather history database for the weather conditions in past years. The results will help you decide how hot, cold, wet, or windy it might be!

Date:

Astronomy

Nov. 05, 2013 Rise Set
Actual Time 6:43 AM CST 4:45 PM CST
Civil Twilight 6:12 AM CST 5:16 PM CST
Nautical Twilight 5:38 AM CST 5:50 PM CST
Astronomical Twilight 5:04 AM CST 6:23 PM CST
Moon 9:01 AM CST (11/5) 6:44 PM CST (11/5)
Length of Visible Light 11h 03m
Length of Day
10h 02m
Waxing Crescent, 7% of the Moon is Illuminated
Nov 5
Waxing Crescent
Nov 9
First Quarter
Nov 17
Full
Nov 25
Last Quarter
Dec 2
New

Hourly Weather History & Observations

Time (CST) Temp. Windchill Dew Point Humidity Pressure Visibility Wind Dir Wind Speed Gust Speed Precip Events Conditions
12:23 AM 44.6 °F 41.4 °F 44.6 °F 100% 30.16 in 10.0 mi WNW 5.8 mph - N/A   Overcast
12:58 AM 44.6 °F 43.1 °F 44.6 °F 100% 30.19 in 10.0 mi West 3.5 mph - N/A   Overcast
1:58 AM 43.9 °F - 43.9 °F 100% 30.21 in 10.0 mi Calm Calm - N/A   Overcast
2:58 AM 41.2 °F - 41.2 °F 100% 30.21 in 10.0 mi NW 2.3 mph - 0.01 in   Partly Cloudy
3:03 AM 41.0 °F - 41.0 °F 100% 30.18 in 9.0 mi NNW 1.2 mph - N/A   Clear
3:08 AM 39.2 °F - 39.2 °F 100% 30.18 in 1.5 mi North 1.2 mph - N/A   Clear
3:13 AM 37.4 °F - 37.4 °F 100% 30.18 in 0.5 mi North 1.2 mph - N/A Fog Fog
3:23 AM 37.4 °F - 37.4 °F 100% 30.18 in 0.2 mi Calm Calm - N/A Fog Fog
3:58 AM 34.7 °F - 34.7 °F 100% 30.22 in 0.2 mi SE 2.3 mph - N/A Fog Fog
4:55 AM 32.0 °F - 32.0 °F 100% 30.21 in 0.2 mi Calm Calm - N/A Fog Light Freezing Fog
4:58 AM 30.6 °F - 30.6 °F 100% 30.25 in 0.2 mi Calm Calm - N/A Fog Light Freezing Fog
5:08 AM 32.0 °F - 32.0 °F 100% 30.21 in 0.2 mi Calm Calm - N/A Fog Light Freezing Fog
5:18 AM 32.0 °F - 32.0 °F 100% 30.22 in 0.2 mi Calm Calm - N/A Fog Light Freezing Fog
5:38 AM 32.0 °F - 32.0 °F 100% 30.22 in 0.2 mi Calm Calm - N/A Fog Light Freezing Fog
5:41 AM 32.0 °F - 32.0 °F 100% 30.22 in 0.2 mi Calm Calm - N/A Fog Light Freezing Fog
5:46 AM 32.0 °F - 32.0 °F 100% 30.21 in 0.2 mi Calm Calm - N/A Fog Light Freezing Fog
5:56 AM 32.0 °F - 32.0 °F 100% 30.21 in 0.2 mi Calm Calm - N/A Fog Light Freezing Fog
5:58 AM 30.6 °F - 30.6 °F 100% 30.25 in 0.2 mi Calm Calm - N/A Fog Light Freezing Fog
6:03 AM 32.0 °F - 32.0 °F 100% 30.21 in 0.5 mi Calm Calm - N/A Fog Light Freezing Fog
6:08 AM 32.0 °F - 32.0 °F 100% 30.21 in 0.8 mi Calm Calm - N/A   Mist
6:13 AM 32.0 °F - 32.0 °F 100% 30.22 in 0.5 mi East 1.2 mph - N/A Fog Light Freezing Fog
6:18 AM 30.2 °F - 30.2 °F 100% 30.22 in 0.2 mi Calm Calm - N/A Fog Light Freezing Fog
6:38 AM 30.2 °F - 30.2 °F 100% 30.22 in 0.2 mi ESE 2.3 mph - N/A Fog Light Freezing Fog
6:58 AM 30.2 °F - 30.2 °F 100% 30.26 in 0.2 mi ENE 1.2 mph - N/A Fog Light Freezing Fog
7:58 AM 32.0 °F - 32.0 °F 100% 30.27 in 0.2 mi Calm Calm - N/A Fog Light Freezing Fog
8:58 AM 35.6 °F - 35.6 °F 100% 30.27 in 0.2 mi ESE 1.2 mph - N/A Fog Fog
9:17 AM 37.4 °F 34.9 °F 37.4 °F 100% 30.24 in 1.5 mi SE 3.5 mph - N/A Fog Patches of Fog
9:26 AM 39.2 °F - 39.2 °F 100% 30.24 in 5.0 mi SSE 2.3 mph - N/A Fog Patches of Fog
9:58 AM 42.8 °F 40.1 °F 42.8 °F 100% 30.26 in 10.0 mi SE 4.6 mph - N/A   Mostly Cloudy
10:58 AM 46.4 °F 44.3 °F 46.4 °F 100% 30.22 in 10.0 mi East 4.6 mph - N/A   Mostly Cloudy
11:58 AM 48.2 °F - 41.0 °F 76% 30.20 in 10.0 mi East 5.8 mph - N/A   Overcast
12:13 PM 48.2 °F - 41.0 °F 76% 30.18 in 7.0 mi East 4.6 mph - N/A Rain Light Rain
1:58 PM 46.4 °F - 46.4 °F 100% 30.14 in 6.0 mi Calm Calm - N/A Rain Light Rain
2:58 PM 46.4 °F - 46.4 °F 100% 30.29 in 6.0 mi Calm Calm - N/A   Light Drizzle
3:58 PM 44.6 °F 42.2 °F 44.6 °F 100% 30.07 in 5.0 mi NE 4.6 mph - N/A Rain Light Rain
4:55 PM 44.6 °F 43.1 °F 44.6 °F 100% 30.05 in 4.0 mi ENE 3.5 mph - N/A Rain Light Rain
5:19 PM 44.6 °F 40.7 °F 44.6 °F 100% 30.00 in 4.0 mi ENE 6.9 mph - N/A Rain Light Rain
5:55 PM 46.4 °F 42.4 °F 46.4 °F 100% 30.00 in 4.0 mi ENE 8.1 mph - N/A Rain Light Rain
6:55 PM 46.4 °F - 46.4 °F 100% 29.99 in 4.0 mi Calm Calm - N/A Rain Rain
7:55 PM 46.4 °F - 46.4 °F 100% 29.93 in 6.0 mi Calm Calm - N/A Rain Light Rain
8:55 PM 44.6 °F 41.4 °F 44.6 °F 100% 29.90 in 5.0 mi NE 5.8 mph - N/A Rain Light Rain
9:55 PM 44.6 °F - 44.6 °F 100% 29.88 in 5.0 mi Calm Calm - N/A Rain Light Rain
10:55 PM 44.6 °F 41.4 °F 44.6 °F 100% 29.84 in 5.0 mi NNW 5.8 mph - N/A Rain Light Rain
11:55 PM 44.6 °F - 44.6 °F 100% 29.82 in 3.0 mi Calm Calm - N/A Rain Light Rain